Preview of NWS' New Version of Forecast
This preview is not operational and should not be used for support decisions.

Regional Weather Roundup (RWR)

Issued by National Weather Service (NWS)

                            
000
ASUS43 KLSX 161357
RWRMO 

WEATHER SUMMARY FOR MISSOURI
NATIONAL WEATHER SERVICE SPRINGFIELD MO
900 AM CDT MON SEP 16 2019

NOTE: "FAIR" INDICATES FEW OR NO CLOUDS BELOW 12,000 FEET WITH NO
       SIGNIFICANT WEATHER AND/OR OBSTRUCTIONS TO VISIBILITY.
       CURRENT SKY AND/OR WEATHER CONDITIONS ARE NOT AVAILABLE FOR
       CHILLICOTHE AND FARMINGTON.

MOZ001>031-035>038-043-044-053-054-161500-
...NORTHERN AND WESTERN MISSOURI...
  
CITY           SKY/WX    TMP DP  RH WIND       PRES   REMARKS
KANSAS CTY INT MOSUNNY   77  72  84 S7        30.11R                  
LEE'S SUMMIT   SUNNY     79  69  71 SW8       30.12R                  
ST JOSEPH      SUNNY     76  70  82 S3        30.09R                  
CHILLICOTHE      N/A     76  73  91 CALM      30.12R                  
     
$$
MOZ066>068-077>081-088>096-101>105-161500-
...SOUTHWEST MISSOURI...
  
CITY           SKY/WX    TMP DP  RH WIND       PRES   REMARKS
SPRINGFIELD    SUNNY     78  69  73 S6        30.15R                  
JOPLIN         SUNNY     79  71  76 S5        30.13S                  
               
$$
MOZ032>034-039>042-045>050-055>058-069>072-161500-
...CENTRAL MISSOURI...  
  
CITY           SKY/WX    TMP DP  RH WIND       PRES   REMARKS
COLUMBIA       NOT AVBL                                               
JEFFERSON CITY SUNNY     75  70  84 E3        30.13R                  
ROLLA          SUNNY     77  66  68 SW6       30.16S                  
SEDALIA        SUNNY     75  71  87 SW6       30.13S                  
               
$$
MOZ051-052-059>065-161500-
...EAST CENTRAL MISSOURI...
  
CITY           SKY/WX    TMP DP  RH WIND       PRES   REMARKS
ST LOUIS INTL  MOSUNNY   81  68  64 VRB6      30.12R                  
                   
$$
MOZ072>076-082>087-097>100-106>115-161500-
...SOUTH CENTRAL AND SOUTHEAST MISSOURI...
  
CITY           SKY/WX    TMP DP  RH WIND       PRES   REMARKS
CAPE GIRARDEAU FAIR      76  69  79 CALM      30.12S                  
POPLAR BLUFF   FAIR      76  68  76 CALM      30.13R                  
WEST PLAINS    SUNNY     83  68  60 CALM      30.17S HAZE             
                                       
$$